Showing default

CE-SAT IIB, 46818

Orbit data source: Space-Track

CE-SAT IIB, 46818 is a payload satellite owned by Canon STL (JP) in SSO that was launched on Wed, 28 Oct 2020 UTC via an ELECTRON launch vehicle from the Rocket Lab Launch Complex (RLLC). Payload-class satellites include a variety of spacecraft equipped with specific instruments for various scientific and technological missions. These include communications satellites like Starlink; space stations such as the ISS; scientific satellites like the Hubble; Earth observation satellites from companies like Planet Labs, Umbra, and HawkEye 360; GPS; miniature CubeSats for education and research; and military/defense satellites.

Loading next visibility...
Identifier
46818, 2020-077F
Orbit
SSO
Country
Flag of JPJP / JPN
Related business
Manufacturer
Canon STL
Mission
Operational Commercial Imaging
Bus & Motor
CE-SAT, Unknown motor
Mass
35 kg wet, 35 kg dry
Launch date (UTC)
2020-10-28 (5 years ago)
Launch vehicle
ELECTRON
Launch site
Rocket Lab Launch Complex (RLLC)
Object type
Payload
Rocket body
Debris
Shape & HBR
Box, Unknown HBR
Radar Cross Section
0.575 m², Medium (>0.1 m² and < 1m²)

Expand to show TLE details & history
Last TLE update: 4 hours ago

TLE from 4 hours ago
0 CE-SAT IIB
1 46818U 20077F   25312.86251410  .00048180  00000-0  47363-3 0  9990
2 46818  97.2382  20.6223 0002576 261.4278  98.6691 15.65883961280512
Epoch: 2025-11-08T20:42Z
TLE epoch observation values (Epoch: 2025-11-08T20:42:01.218Z)
Latitude
0.00004°
Longitude
21.83118°
Altitude
374.117 km
Speed
7.685 km/s
True Right ascension
01h 22m 29s
True Declination
0° 00' 00"
Sunlit
Object was in full shadow at epoch
Visualization orbit readout
Latitude
Unknown
Longitude
Unknown
Altitude
Unknown
Speed
Unknown
Apparent Right ascension
Unknown
Apparent Declination
Unknown
Sunlit
N/A
Visualization observer readout
Local Sidereal Time
21:24:41
Azimuth
Unknown
Elevation
Unknown
Doppler factor
Unknown
Orbital elements
Apogee altitude
369.333 km
Perigee altitude
365.858 km
Semi-major axis
6,745.732 km
Eccentricity
0.00026
Inclination
97.2382°
RAAN
20.6223°
Arg. of periapsis
261.4278°
True anomaly
98.69828°
Mean anomaly
98.6691°
Eccentric anomaly
98.68369°
Mean motion
3.91741 °/min
Orbital period
91.9 mins
BSTAR
0.00047363
Loading maneuver chart data...
Computing Atmospheric mass density...
Loading historical data...
Loading historical data...
Loading historical data...
Loading historical data...
Loading historical data...
Loading historical data...
Loading historical data...

Documentation

Showing up to 5 results
|